星链-33735 (STARLINK-33735)

导读

STARLINK-33735是美国SpaceX公司星链(Starlink)星座的第二批次低轨通信卫星,于2025年4月6日成功发射入轨。作为第二代星链卫星,该卫星运行在近地轨道,配备增强型相控阵天线、全功率激光星间链路和氪离子推进系统,可提供高速低延迟宽带通信服务,支撑全球覆盖的卫星互联网,助力偏远地区接入、应急通信等场景应用,进一步扩展星链星座的服务能力与覆盖范围。

基本信息
目录编号:
63474
目录名称:
STARLINK-33735
国际标识:
2025-070Q
轨道中心:
EARTH
卫星名称:
星链-33735
卫星全名:
星链-33735 (STARLINK-33735)
卫星状态:
在轨 (已飞行516 天)
发射日期:
2025-04-06 UTC
国别 :
美国 (US)
星等 :
--
轨道信息
数据来源 国际轨道数据
星历时间: 2026-09-03T15:36:08+0800
1天前
查看轨道信息
半长轴: 6861.146km
偏心率: 0.0001763
轨道倾角: 43.003°
近地点辐角 270.495°
升交点赤经 336.525°
平近点角 89.570°
近地点: 481.799km
远地点: 484.219km
周期: 94.266分钟
每日圈数: 15.275934
详细信息
固有亮度:
5
最大亮度:
2.5
卫星平台:
Starlink V1.0
覆盖范围:
全球
运营商:
太空探索技术公司
运营商所在国:
美国
制造商(研发单位):
太空探索技术公司
制造商所在国:
美国
使用方式:
暂无
卫星简介
Starlink 计划是 SpaceX 推出的全球卫星互联网项目,通过发射低轨道卫星,为全球尤其是偏远地区提供高速、低延迟的互联网服务。自 2019 年起,Starlink 已部署数千颗卫星,旨在缩小全球数字鸿沟,推动互联网普及。该项目还为军事、航空等行业提供通信支持,带来广泛经济效益。
2D轨道图
3D轨道图
轨道高度分析图
轨道倾角分析图
轨道综合分析图
查看轨道综合分析图
交会数据列表
事件ID 空间交会对象 最接近时刻(TCA) 交会距离 交会风险概率(CRP) 交会风险指数(CRI) 操作
CDM_260906-152405-558506-347421
2026-09-06T
15:24:29+0000
0.951 km
远距离
2.025137E-5 中风险 0.61
CDM_260906-165805-558506-347421
2026-09-06T
16:58:39+0000
1.031 km
极远距离
1.533361E-5 中风险 0.59
CDM_260906-135005-558506-347421
2026-09-06T
13:50:20+0000
2.769 km
极远距离
1.020031E-6 低风险 0.35
CDM_260906-183205-558506-347421
2026-09-06T
18:32:48+0000
2.913 km
极远距离
9.559346E-7 极低风险 0.35